星链-11282 (STARLINK-11282)

导读 | 豆包AI

STARLINK-11282是美国于北京时间2024年9月5日发射的星链卫星,归属SpaceX星链互联网星座项目。星链项目旨在构建全球卫星互联网络,为全球偏远、无网络覆盖区域提供高速低时延互联网服务,该卫星的发射延续了星链星座规模化部署节奏,进一步扩充了星座低轨卫星规模,推动全球卫星互联网覆盖能力提升。

基本信息
目录编号:
60992
目录名称:
STARLINK-11282
国际标识:
2024-158C
轨道中心:
EARTH
卫星名称:
星链-11282
卫星全名:
星链-11282 (STARLINK-11282)
卫星状态:
在轨 (已飞行556 天)
发射日期:
2024-09-05 UTC
国别 :
美国 (US)
星等 :
--
轨道信息
数据来源 国际轨道数据
星历时间: 2026-03-15T05:37:01+0800
13小时前
查看轨道信息
半长轴: 6737.852km
偏心率: 0.0001221
轨道倾角: 53.157°
近地点辐角 77.974°
升交点赤经 255.537°
平近点角 282.142°
近地点: 358.892km
远地点: 360.538km
周期: 91.736分钟
每日圈数: 15.697143
详细信息
固有亮度:
5
最大亮度:
2.5
卫星平台:
Starlink V1.0
覆盖范围:
全球
运营商:
太空探索技术公司
运营商所在国:
美国
制造商(研发单位):
太空探索技术公司
制造商所在国:
美国
使用方式:
暂无
卫星简介
Starlink 计划是 SpaceX 推出的全球卫星互联网项目,通过发射低轨道卫星,为全球尤其是偏远地区提供高速、低延迟的互联网服务。自 2019 年起,Starlink 已部署数千颗卫星,旨在缩小全球数字鸿沟,推动互联网普及。该项目还为军事、航空等行业提供通信支持,带来广泛经济效益。
2D轨道图
3D轨道图
轨道高度分析图
轨道倾角分析图
轨道综合分析图
查看轨道综合分析图